Year,Month,Day,Hour,Minute,Value (Times are PST for temperature in C)
2019,08,05,00,00,17.30
2019,08,05,00,01,17.30
2019,08,05,00,02,17.30
2019,08,05,00,03,17.30
2019,08,05,00,04,17.30
2019,08,05,00,05,17.40
2019,08,05,00,06,17.40
2019,08,05,00,07,17.30
2019,08,05,00,08,17.30
2019,08,05,00,09,17.20
2019,08,05,00,10,17.20
2019,08,05,00,11,17.20
2019,08,05,00,12,17.10
2019,08,05,00,13,17.10
2019,08,05,00,14,17.10
2019,08,05,00,15,17.10
2019,08,05,00,16,17.10
2019,08,05,00,17,17.20
2019,08,05,00,18,17.20
2019,08,05,00,19,17.20
2019,08,05,00,20,17.20
2019,08,05,00,21,17.20
2019,08,05,00,22,17.30
2019,08,05,00,23,17.30
2019,08,05,00,24,17.40
2019,08,05,00,25,17.40
2019,08,05,00,26,17.50
2019,08,05,00,27,17.60
2019,08,05,00,28,17.60
2019,08,05,00,29,17.60
2019,08,05,00,30,17.50
2019,08,05,00,31,17.50
2019,08,05,00,32,17.50
2019,08,05,00,33,17.50
2019,08,05,00,34,17.50
2019,08,05,00,35,17.50
2019,08,05,00,36,17.50
2019,08,05,00,37,17.50
2019,08,05,00,38,17.50
2019,08,05,00,39,17.40
2019,08,05,00,40,17.30
2019,08,05,00,41,17.30
2019,08,05,00,42,17.20
2019,08,05,00,43,17.20
2019,08,05,00,44,17.10
2019,08,05,00,45,17.00
2019,08,05,00,46,17.00
2019,08,05,00,47,16.90
2019,08,05,00,48,16.90
2019,08,05,00,49,16.90
2019,08,05,00,50,16.80
2019,08,05,00,51,16.80
2019,08,05,00,52,16.70
2019,08,05,00,53,16.70
2019,08,05,00,54,16.70
2019,08,05,00,55,16.70
2019,08,05,00,56,16.70
2019,08,05,00,57,16.70
2019,08,05,00,58,16.70
2019,08,05,00,59,16.60
2019,08,05,01,00,16.60
2019,08,05,01,01,16.60
2019,08,05,01,02,16.60
2019,08,05,01,03,16.60
2019,08,05,01,04,16.60
2019,08,05,01,05,16.70
2019,08,05,01,06,16.70
2019,08,05,01,07,16.70
2019,08,05,01,08,16.70
2019,08,05,01,09,16.70
2019,08,05,01,10,16.60
2019,08,05,01,11,16.70
2019,08,05,01,12,16.70
2019,08,05,01,13,16.70
2019,08,05,01,14,16.70
2019,08,05,01,15,16.70
2019,08,05,01,16,16.70
2019,08,05,01,17,16.60
2019,08,05,01,18,16.60
2019,08,05,01,19,16.60
2019,08,05,01,20,16.70
2019,08,05,01,21,16.80
2019,08,05,01,22,16.90
2019,08,05,01,23,16.90
2019,08,05,01,24,17.00
2019,08,05,01,25,17.00
2019,08,05,01,26,17.10
2019,08,05,01,27,17.10
2019,08,05,01,28,17.10
2019,08,05,01,29,17.10
2019,08,05,01,30,17.10
2019,08,05,01,31,17.00
2019,08,05,01,32,17.00
2019,08,05,01,33,16.90
2019,08,05,01,34,16.90
2019,08,05,01,35,16.90
2019,08,05,01,36,16.80
2019,08,05,01,37,16.80
2019,08,05,01,38,16.70
2019,08,05,01,39,16.70
2019,08,05,01,40,16.70
2019,08,05,01,41,16.60
2019,08,05,01,42,16.60
2019,08,05,01,43,16.60
2019,08,05,01,44,16.70
2019,08,05,01,45,16.70
2019,08,05,01,46,16.70
2019,08,05,01,47,16.70
2019,08,05,01,48,16.70
2019,08,05,01,49,16.70
2019,08,05,01,50,16.70
2019,08,05,01,51,16.70
2019,08,05,01,52,16.80
2019,08,05,01,53,16.80
2019,08,05,01,54,16.80
2019,08,05,01,55,16.80
2019,08,05,01,56,16.70
2019,08,05,01,57,16.70
2019,08,05,01,58,16.60
2019,08,05,01,59,16.50
2019,08,05,02,00,16.40
2019,08,05,02,01,16.40
2019,08,05,02,02,16.30
2019,08,05,02,03,16.30
2019,08,05,02,04,16.20
2019,08,05,02,05,16.10
2019,08,05,02,06,16.10
2019,08,05,02,07,16.00
2019,08,05,02,08,16.00
2019,08,05,02,09,15.90
2019,08,05,02,10,15.90
2019,08,05,02,11,15.90
2019,08,05,02,12,15.80
2019,08,05,02,13,15.80
2019,08,05,02,14,15.80
2019,08,05,02,15,15.80
2019,08,05,02,16,15.80
2019,08,05,02,17,15.90
2019,08,05,02,18,15.90
2019,08,05,02,19,16.00
2019,08,05,02,20,16.00
2019,08,05,02,21,16.10
2019,08,05,02,22,16.10
2019,08,05,02,23,16.10
2019,08,05,02,24,16.10
2019,08,05,02,25,16.10
2019,08,05,02,26,16.10
2019,08,05,02,27,16.10
2019,08,05,02,28,16.10
2019,08,05,02,29,16.10
2019,08,05,02,30,16.00
2019,08,05,02,31,16.00
2019,08,05,02,32,16.00
2019,08,05,02,33,15.90
2019,08,05,02,34,15.90
2019,08,05,02,35,16.00
2019,08,05,02,36,16.00
2019,08,05,02,37,16.00
2019,08,05,02,38,16.00
2019,08,05,02,39,16.00
2019,08,05,02,40,16.00
2019,08,05,02,41,16.00
2019,08,05,02,42,15.90
2019,08,05,02,43,15.90
2019,08,05,02,44,15.80
2019,08,05,02,45,15.80
2019,08,05,02,46,15.70
2019,08,05,02,47,15.60
2019,08,05,02,48,15.60
2019,08,05,02,49,15.50
2019,08,05,02,50,15.50
2019,08,05,02,51,15.50
2019,08,05,02,52,15.50
2019,08,05,02,53,15.60
2019,08,05,02,54,15.60
2019,08,05,02,55,15.70
2019,08,05,02,56,15.70
2019,08,05,02,57,15.80
2019,08,05,02,58,15.80
2019,08,05,02,59,15.80
2019,08,05,03,00,15.80
2019,08,05,03,01,15.80
2019,08,05,03,02,15.70
2019,08,05,03,03,15.70
2019,08,05,03,04,15.70
2019,08,05,03,05,15.80
2019,08,05,03,06,15.80
2019,08,05,03,07,15.80
2019,08,05,03,08,15.80
2019,08,05,03,09,15.80
2019,08,05,03,10,15.80
2019,08,05,03,11,15.80
2019,08,05,03,12,15.80
2019,08,05,03,13,15.70
2019,08,05,03,14,15.60
2019,08,05,03,15,15.50
2019,08,05,03,16,15.40
2019,08,05,03,17,15.40
2019,08,05,03,18,15.30
2019,08,05,03,19,15.30
2019,08,05,03,20,15.30
2019,08,05,03,21,15.30
2019,08,05,03,22,15.30
2019,08,05,03,23,15.30
2019,08,05,03,24,15.30
2019,08,05,03,25,15.30
2019,08,05,03,26,15.30
2019,08,05,03,27,15.30
2019,08,05,03,28,15.30
2019,08,05,03,29,15.20
2019,08,05,03,30,15.10
2019,08,05,03,31,15.10
2019,08,05,03,32,15.10
2019,08,05,03,33,15.10
2019,08,05,03,34,15.10
2019,08,05,03,35,15.10
2019,08,05,03,36,15.20
2019,08,05,03,37,15.30
2019,08,05,03,38,15.30
2019,08,05,03,39,15.50
2019,08,05,03,40,15.60
2019,08,05,03,41,15.60
2019,08,05,03,42,15.70
2019,08,05,03,43,15.70
2019,08,05,03,44,15.80
2019,08,05,03,45,15.80
2019,08,05,03,46,15.80
2019,08,05,03,47,15.80
2019,08,05,03,48,15.80
2019,08,05,03,49,15.70
2019,08,05,03,50,15.60
2019,08,05,03,51,15.60
2019,08,05,03,52,15.50
2019,08,05,03,53,15.50
2019,08,05,03,54,15.40
2019,08,05,03,55,15.40
2019,08,05,03,56,15.30
2019,08,05,03,57,15.30
2019,08,05,03,58,15.20
2019,08,05,03,59,15.20
2019,08,05,04,00,15.10
2019,08,05,04,01,15.10
2019,08,05,04,02,15.10
2019,08,05,04,03,15.00
2019,08,05,04,04,15.00
2019,08,05,04,05,15.00
2019,08,05,04,06,15.10
2019,08,05,04,07,15.10
2019,08,05,04,08,15.10
2019,08,05,04,09,15.00
2019,08,05,04,10,14.90
2019,08,05,04,11,14.90
2019,08,05,04,12,14.80
2019,08,05,04,13,14.70
2019,08,05,04,14,14.70
2019,08,05,04,15,14.60
2019,08,05,04,16,14.60
2019,08,05,04,17,14.50
2019,08,05,04,18,14.40
2019,08,05,04,19,14.40
2019,08,05,04,20,14.40
2019,08,05,04,21,14.50
2019,08,05,04,22,14.60
2019,08,05,04,23,14.70
2019,08,05,04,24,14.70
2019,08,05,04,25,14.80
2019,08,05,04,26,14.80
2019,08,05,04,27,14.80
2019,08,05,04,28,14.80
2019,08,05,04,29,14.80
2019,08,05,04,30,14.80
2019,08,05,04,31,14.80
2019,08,05,04,32,14.80
2019,08,05,04,33,14.70
2019,08,05,04,34,14.70
2019,08,05,04,35,14.70
2019,08,05,04,36,14.70
2019,08,05,04,37,14.70
2019,08,05,04,38,14.70
2019,08,05,04,39,14.60
2019,08,05,04,40,14.60
2019,08,05,04,41,14.60
2019,08,05,04,42,14.50
2019,08,05,04,43,14.50
2019,08,05,04,44,14.60
2019,08,05,04,45,14.60
2019,08,05,04,46,14.60
2019,08,05,04,47,14.60
2019,08,05,04,48,14.50
2019,08,05,04,49,14.50
2019,08,05,04,50,14.40
2019,08,05,04,51,14.40
2019,08,05,04,52,14.40
2019,08,05,04,53,14.50
2019,08,05,04,54,14.50
2019,08,05,04,55,14.60
2019,08,05,04,56,14.60
2019,08,05,04,57,14.60
2019,08,05,04,58,14.60
2019,08,05,04,59,14.60
2019,08,05,05,00,14.60
2019,08,05,05,01,14.60
2019,08,05,05,02,14.60
2019,08,05,05,03,14.50
2019,08,05,05,04,14.50
2019,08,05,05,05,14.50
2019,08,05,05,06,14.40
2019,08,05,05,07,14.30
2019,08,05,05,08,14.30
2019,08,05,05,09,14.20
2019,08,05,05,10,14.20
2019,08,05,05,11,14.20
2019,08,05,05,12,14.10
2019,08,05,05,13,14.10
2019,08,05,05,14,14.10
2019,08,05,05,15,14.10
2019,08,05,05,16,14.20
2019,08,05,05,17,14.20
2019,08,05,05,18,14.20
2019,08,05,05,19,14.20
2019,08,05,05,20,14.20
2019,08,05,05,21,14.20
2019,08,05,05,22,14.20
2019,08,05,05,23,14.20
2019,08,05,05,24,14.10
2019,08,05,05,25,14.10
2019,08,05,05,26,14.10
2019,08,05,05,27,14.10
2019,08,05,05,28,14.20
2019,08,05,05,29,14.20
2019,08,05,05,30,14.30
2019,08,05,05,31,14.20
2019,08,05,05,32,14.20
2019,08,05,05,33,14.20
2019,08,05,05,34,14.20
2019,08,05,05,35,14.20
2019,08,05,05,36,14.10
2019,08,05,05,37,14.10
2019,08,05,05,38,14.10
2019,08,05,05,39,14.10
2019,08,05,05,40,14.10
2019,08,05,05,41,14.00
2019,08,05,05,42,14.00
2019,08,05,05,43,14.10
2019,08,05,05,44,14.10
2019,08,05,05,45,14.10
2019,08,05,05,46,14.20
2019,08,05,05,47,14.20
2019,08,05,05,48,14.10
2019,08,05,05,49,14.10
2019,08,05,05,50,14.10
2019,08,05,05,51,14.20
2019,08,05,05,52,14.20
2019,08,05,05,53,14.30
2019,08,05,05,54,14.30
2019,08,05,05,55,14.30
2019,08,05,05,56,14.30
2019,08,05,05,57,14.30
2019,08,05,05,58,14.30
2019,08,05,05,59,14.30
2019,08,05,06,00,14.30
2019,08,05,06,01,14.20
2019,08,05,06,02,14.20
2019,08,05,06,03,14.20
2019,08,05,06,04,14.10
2019,08,05,06,05,14.10
2019,08,05,06,06,14.00
2019,08,05,06,07,13.90
2019,08,05,06,08,13.90
2019,08,05,06,09,13.80
2019,08,05,06,10,13.70
2019,08,05,06,11,13.70
2019,08,05,06,12,13.70
2019,08,05,06,13,13.60
2019,08,05,06,14,13.60
2019,08,05,06,15,13.50
2019,08,05,06,16,13.50
2019,08,05,06,17,13.50
2019,08,05,06,18,13.50
2019,08,05,06,19,13.60
2019,08,05,06,20,13.60
2019,08,05,06,21,13.60
2019,08,05,06,22,13.60
2019,08,05,06,23,13.60
2019,08,05,06,24,13.60
2019,08,05,06,25,13.60
2019,08,05,06,26,13.60
2019,08,05,06,27,13.60
2019,08,05,06,28,13.70
2019,08,05,06,29,13.70
2019,08,05,06,30,13.80
2019,08,05,06,31,13.80
2019,08,05,06,32,13.90
2019,08,05,06,33,14.00
2019,08,05,06,34,14.00
2019,08,05,06,35,14.10
2019,08,05,06,36,14.20
2019,08,05,06,37,14.30
2019,08,05,06,38,14.30
2019,08,05,06,39,14.40
2019,08,05,06,40,14.50
2019,08,05,06,41,14.50
2019,08,05,06,42,14.50
2019,08,05,06,43,14.50
2019,08,05,06,44,14.50
2019,08,05,06,45,14.40
2019,08,05,06,46,14.50
2019,08,05,06,47,14.50
2019,08,05,06,48,14.50
2019,08,05,06,49,14.60
2019,08,05,06,50,14.60
2019,08,05,06,51,14.50
2019,08,05,06,52,14.50
2019,08,05,06,53,14.40
2019,08,05,06,54,14.40
2019,08,05,06,55,14.40
2019,08,05,06,56,14.40
2019,08,05,06,57,14.50
2019,08,05,06,58,14.60
2019,08,05,06,59,14.60
2019,08,05,07,00,14.60
2019,08,05,07,01,14.70
2019,08,05,07,02,14.70
2019,08,05,07,03,14.80
2019,08,05,07,04,14.80
2019,08,05,07,05,14.90
2019,08,05,07,06,14.90
2019,08,05,07,07,15.00
2019,08,05,07,08,15.00
2019,08,05,07,09,15.00
2019,08,05,07,10,15.10
2019,08,05,07,11,15.10
2019,08,05,07,12,15.10
2019,08,05,07,13,15.20
2019,08,05,07,14,15.20
2019,08,05,07,15,15.30
2019,08,05,07,16,15.30
2019,08,05,07,17,15.40
2019,08,05,07,18,15.50
2019,08,05,07,19,15.70
2019,08,05,07,20,15.80
2019,08,05,07,21,15.90
2019,08,05,07,22,16.00
2019,08,05,07,23,16.10
2019,08,05,07,24,16.20
2019,08,05,07,25,16.20
2019,08,05,07,26,16.30
2019,08,05,07,27,16.40
2019,08,05,07,28,16.40
2019,08,05,07,29,16.50
2019,08,05,07,30,16.50
2019,08,05,07,31,16.60
2019,08,05,07,32,16.60
2019,08,05,07,33,16.70
2019,08,05,07,34,16.80
2019,08,05,07,35,16.80
2019,08,05,07,36,16.80
2019,08,05,07,37,16.80
2019,08,05,07,38,16.90
2019,08,05,07,39,17.00
2019,08,05,07,40,17.10
2019,08,05,07,41,17.20
2019,08,05,07,42,17.30
2019,08,05,07,43,17.40
2019,08,05,07,44,17.50
2019,08,05,07,45,17.70
2019,08,05,07,46,17.80
2019,08,05,07,47,17.90
2019,08,05,07,48,18.00
2019,08,05,07,49,18.00
2019,08,05,07,50,18.10
2019,08,05,07,51,18.30
2019,08,05,07,52,18.30
2019,08,05,07,53,18.40
2019,08,05,07,54,18.50
2019,08,05,07,55,18.60
2019,08,05,07,56,18.60
2019,08,05,07,57,18.70
2019,08,05,07,58,18.70
2019,08,05,07,59,18.80
2019,08,05,08,00,18.90
2019,08,05,08,01,19.00
2019,08,05,08,02,19.00
2019,08,05,08,03,19.10
2019,08,05,08,04,19.20
2019,08,05,08,05,19.20
2019,08,05,08,06,19.20
2019,08,05,08,07,19.20
2019,08,05,08,08,19.20
2019,08,05,08,09,19.20
2019,08,05,08,10,19.20
2019,08,05,08,11,19.20
2019,08,05,08,12,19.20
2019,08,05,08,13,19.30
2019,08,05,08,14,19.30
2019,08,05,08,15,19.30
2019,08,05,08,16,19.40
2019,08,05,08,17,19.40
2019,08,05,08,18,19.50
2019,08,05,08,19,19.50
2019,08,05,08,20,19.50
2019,08,05,08,21,19.60
2019,08,05,08,22,19.70
2019,08,05,08,23,19.70
2019,08,05,08,24,19.80
2019,08,05,08,25,19.80
2019,08,05,08,26,19.90
2019,08,05,08,27,20.00
2019,08,05,08,28,20.10
2019,08,05,08,29,20.20
2019,08,05,08,30,20.20
2019,08,05,08,31,20.30
2019,08,05,08,32,20.40
2019,08,05,08,33,20.50
2019,08,05,08,34,20.50
2019,08,05,08,35,20.60
2019,08,05,08,36,20.60
2019,08,05,08,37,20.70
2019,08,05,08,38,20.70
2019,08,05,08,39,20.80
2019,08,05,08,40,20.80
2019,08,05,08,41,20.90
2019,08,05,08,42,21.00
2019,08,05,08,43,21.00
2019,08,05,08,44,21.10
2019,08,05,08,45,21.10
2019,08,05,08,46,21.10
2019,08,05,08,47,21.20
2019,08,05,08,48,21.20
2019,08,05,08,49,21.30
2019,08,05,08,50,21.30
2019,08,05,08,51,21.30
2019,08,05,08,52,21.30
2019,08,05,08,53,21.30
2019,08,05,08,54,21.30
2019,08,05,08,55,21.30
2019,08,05,08,56,21.30
2019,08,05,08,57,21.20
2019,08,05,08,58,21.20
2019,08,05,08,59,21.20
2019,08,05,09,00,21.10
2019,08,05,09,01,21.10
2019,08,05,09,02,21.10
2019,08,05,09,03,21.10
2019,08,05,09,04,21.20
2019,08,05,09,05,21.20
2019,08,05,09,06,21.30
2019,08,05,09,07,21.30
2019,08,05,09,08,21.40
2019,08,05,09,09,21.40
2019,08,05,09,10,21.40
2019,08,05,09,11,21.40
2019,08,05,09,12,21.40
2019,08,05,09,13,21.40
2019,08,05,09,14,21.40
2019,08,05,09,15,21.40
2019,08,05,09,16,21.40
2019,08,05,09,17,21.40
2019,08,05,09,18,21.40
2019,08,05,09,19,21.50
2019,08,05,09,20,21.50
2019,08,05,09,21,21.50
2019,08,05,09,22,21.60
2019,08,05,09,23,21.60
2019,08,05,09,24,21.70
2019,08,05,09,25,21.70
2019,08,05,09,26,21.80
2019,08,05,09,27,21.80
2019,08,05,09,28,21.80
2019,08,05,09,29,21.80
2019,08,05,09,30,21.90
2019,08,05,09,31,21.90
2019,08,05,09,32,21.90
2019,08,05,09,33,21.90
2019,08,05,09,34,21.90
2019,08,05,09,35,21.90
2019,08,05,09,36,21.90
2019,08,05,09,37,21.90
2019,08,05,09,38,22.00
2019,08,05,09,39,22.10
2019,08,05,09,40,22.20
2019,08,05,09,41,22.30
2019,08,05,09,42,22.30
2019,08,05,09,43,22.40
2019,08,05,09,44,22.50
2019,08,05,09,45,22.50
2019,08,05,09,46,22.50
2019,08,05,09,47,22.50
2019,08,05,09,48,22.50
2019,08,05,09,49,22.50
2019,08,05,09,50,22.50
2019,08,05,09,51,22.40
2019,08,05,09,52,22.40
2019,08,05,09,53,22.50
2019,08,05,09,54,22.50
2019,08,05,09,55,22.60
2019,08,05,09,56,22.70
2019,08,05,09,57,22.80
2019,08,05,09,58,22.80
2019,08,05,09,59,23.00
2019,08,05,10,00,23.00
2019,08,05,10,01,23.10
2019,08,05,10,02,23.10
2019,08,05,10,03,23.10
2019,08,05,10,04,23.10
2019,08,05,10,05,23.10
2019,08,05,10,06,23.10
2019,08,05,10,07,23.10
2019,08,05,10,08,23.10
2019,08,05,10,09,23.20
2019,08,05,10,10,23.20
2019,08,05,10,11,23.20
2019,08,05,10,12,23.20
2019,08,05,10,13,23.20
2019,08,05,10,14,23.20
2019,08,05,10,15,23.30
2019,08,05,10,16,23.30
2019,08,05,10,17,23.40
2019,08,05,10,18,23.40
2019,08,05,10,19,23.50
2019,08,05,10,20,23.60
2019,08,05,10,21,23.60
2019,08,05,10,22,23.70
2019,08,05,10,23,23.80
2019,08,05,10,24,23.80
2019,08,05,10,25,23.80
2019,08,05,10,26,23.80
2019,08,05,10,27,23.90
2019,08,05,10,28,24.00
2019,08,05,10,29,24.00
2019,08,05,10,30,24.00
2019,08,05,10,31,24.00
2019,08,05,10,32,23.90
2019,08,05,10,33,23.90
2019,08,05,10,34,23.90
2019,08,05,10,35,24.00
2019,08,05,10,36,24.10
2019,08,05,10,37,24.20
2019,08,05,10,38,24.30
2019,08,05,10,39,24.30
2019,08,05,10,40,24.40
2019,08,05,10,41,24.40
2019,08,05,10,42,24.40
2019,08,05,10,43,24.30
2019,08,05,10,44,24.20
2019,08,05,10,45,24.20
2019,08,05,10,46,24.00
2019,08,05,10,47,23.90
2019,08,05,10,48,23.80
2019,08,05,10,49,23.90
2019,08,05,10,50,23.90
2019,08,05,10,51,23.90
2019,08,05,10,52,23.90
2019,08,05,10,53,23.90
2019,08,05,10,54,23.90
2019,08,05,10,55,23.80
2019,08,05,10,56,23.80
2019,08,05,10,57,23.80
2019,08,05,10,58,23.80
2019,08,05,10,59,23.80
2019,08,05,11,00,23.90
2019,08,05,11,01,23.90
2019,08,05,11,02,24.00
2019,08,05,11,03,24.10
2019,08,05,11,04,24.10
2019,08,05,11,05,24.30
2019,08,05,11,06,24.40
2019,08,05,11,07,24.50
2019,08,05,11,08,24.50
2019,08,05,11,09,24.60
2019,08,05,11,10,24.50
2019,08,05,11,11,24.60
2019,08,05,11,12,24.60
2019,08,05,11,13,24.70
2019,08,05,11,14,24.70
2019,08,05,11,15,24.70
2019,08,05,11,16,24.70
2019,08,05,11,17,24.70
2019,08,05,11,18,24.70
2019,08,05,11,19,24.70
2019,08,05,11,20,24.70
2019,08,05,11,21,24.80
2019,08,05,11,22,24.80
2019,08,05,11,23,24.90
2019,08,05,11,24,24.90
2019,08,05,11,25,24.80
2019,08,05,11,26,24.90
2019,08,05,11,27,24.80
2019,08,05,11,28,24.80
2019,08,05,11,29,24.90
2019,08,05,11,30,25.00
2019,08,05,11,31,25.10
2019,08,05,11,32,25.10
2019,08,05,11,33,25.20
2019,08,05,11,34,25.30
2019,08,05,11,35,25.30
2019,08,05,11,36,25.30
2019,08,05,11,37,25.40
2019,08,05,11,38,25.40
2019,08,05,11,39,25.40
2019,08,05,11,40,25.40
2019,08,05,11,41,25.40
2019,08,05,11,42,25.40
2019,08,05,11,43,25.40
2019,08,05,11,44,25.30
2019,08,05,11,45,25.20
2019,08,05,11,46,25.20
2019,08,05,11,47,25.20
2019,08,05,11,48,25.20
2019,08,05,11,49,25.30
2019,08,05,11,50,25.40
2019,08,05,11,51,25.40
2019,08,05,11,52,25.50
2019,08,05,11,53,25.60
2019,08,05,11,54,25.60
2019,08,05,11,55,25.70
2019,08,05,11,56,25.80
2019,08,05,11,57,26.00
2019,08,05,11,58,26.10
2019,08,05,11,59,26.10
2019,08,05,12,00,26.10
2019,08,05,12,01,26.10
2019,08,05,12,02,26.00
2019,08,05,12,03,26.00
2019,08,05,12,04,26.00
2019,08,05,12,05,26.10
2019,08,05,12,06,26.10
2019,08,05,12,07,26.20
2019,08,05,12,08,26.20
2019,08,05,12,09,26.20
2019,08,05,12,10,26.20
2019,08,05,12,11,26.20
2019,08,05,12,12,26.20
2019,08,05,12,13,26.20
2019,08,05,12,14,26.30
2019,08,05,12,15,26.30
2019,08,05,12,16,26.30
2019,08,05,12,17,26.30
2019,08,05,12,18,26.20
2019,08,05,12,19,26.20
2019,08,05,12,20,26.20
2019,08,05,12,21,26.10
2019,08,05,12,22,26.20
2019,08,05,12,23,26.10
2019,08,05,12,24,26.10
2019,08,05,12,25,26.10
2019,08,05,12,26,26.10
2019,08,05,12,27,26.10
2019,08,05,12,28,26.10
2019,08,05,12,29,26.00
2019,08,05,12,30,26.00
2019,08,05,12,31,26.10
2019,08,05,12,32,26.10
2019,08,05,12,33,26.20
2019,08,05,12,34,26.30
2019,08,05,12,35,26.40
2019,08,05,12,36,26.50
2019,08,05,12,37,26.70
2019,08,05,12,38,26.80
2019,08,05,12,39,26.80
2019,08,05,12,40,26.90
2019,08,05,12,41,26.90
2019,08,05,12,42,26.80
2019,08,05,12,43,26.80
2019,08,05,12,44,26.80
2019,08,05,12,45,26.80
2019,08,05,12,46,26.80
2019,08,05,12,47,26.80
2019,08,05,12,48,26.90
2019,08,05,12,49,26.90
2019,08,05,12,50,26.90
2019,08,05,12,51,26.90
2019,08,05,12,52,26.90
2019,08,05,12,53,26.80
2019,08,05,12,54,26.80
2019,08,05,12,55,26.80
2019,08,05,12,56,26.80
2019,08,05,12,57,26.80
2019,08,05,12,58,26.80
2019,08,05,12,59,26.80
2019,08,05,13,00,26.80
2019,08,05,13,01,26.80
2019,08,05,13,02,26.80
2019,08,05,13,03,26.80
2019,08,05,13,04,26.80
2019,08,05,13,05,26.80
2019,08,05,13,06,26.90
2019,08,05,13,07,26.90
2019,08,05,13,08,26.90
2019,08,05,13,09,27.00
2019,08,05,13,10,27.00
2019,08,05,13,11,27.00
2019,08,05,13,12,27.10
2019,08,05,13,13,27.10
2019,08,05,13,14,27.10
2019,08,05,13,15,27.00
2019,08,05,13,16,27.10
2019,08,05,13,17,27.10
2019,08,05,13,18,27.10
2019,08,05,13,19,27.20
2019,08,05,13,20,27.30
2019,08,05,13,21,27.40
2019,08,05,13,22,27.30
2019,08,05,13,23,27.30
2019,08,05,13,24,27.30
2019,08,05,13,25,27.30
2019,08,05,13,26,27.30
2019,08,05,13,27,27.30
2019,08,05,13,28,27.30
2019,08,05,13,29,27.30
2019,08,05,13,30,27.30
2019,08,05,13,31,27.20
2019,08,05,13,32,27.20
2019,08,05,13,33,27.30
2019,08,05,13,34,27.40
2019,08,05,13,35,27.40
2019,08,05,13,36,27.50
2019,08,05,13,37,27.50
2019,08,05,13,38,27.60
2019,08,05,13,39,27.60
2019,08,05,13,40,27.60
2019,08,05,13,41,27.60
2019,08,05,13,42,27.60
2019,08,05,13,43,27.70
2019,08,05,13,44,27.70
2019,08,05,13,45,27.70
2019,08,05,13,46,27.80
2019,08,05,13,47,27.90
2019,08,05,13,48,27.90
2019,08,05,13,49,27.90
2019,08,05,13,50,27.90
2019,08,05,13,51,27.80
2019,08,05,13,52,27.90
2019,08,05,13,53,27.90
2019,08,05,13,54,27.90
2019,08,05,13,55,27.90
2019,08,05,13,56,27.90
2019,08,05,13,57,27.90
2019,08,05,13,58,27.90
2019,08,05,13,59,27.90
2019,08,05,14,00,27.90
2019,08,05,14,01,27.90
2019,08,05,14,02,27.80
2019,08,05,14,03,27.80
2019,08,05,14,04,27.80
2019,08,05,14,05,27.80
2019,08,05,14,06,27.80
2019,08,05,14,07,27.80
2019,08,05,14,08,27.90
2019,08,05,14,09,27.90
2019,08,05,14,10,27.90
2019,08,05,14,11,27.90
2019,08,05,14,12,27.90
2019,08,05,14,13,27.90
2019,08,05,14,14,27.90
2019,08,05,14,15,27.90
2019,08,05,14,16,27.90
2019,08,05,14,17,27.90
2019,08,05,14,18,28.00
2019,08,05,14,19,28.00
2019,08,05,14,20,28.10
2019,08,05,14,21,28.10
2019,08,05,14,22,28.10
2019,08,05,14,23,28.10
2019,08,05,14,24,28.10
2019,08,05,14,25,28.20
2019,08,05,14,26,28.20
2019,08,05,14,27,28.20
2019,08,05,14,28,28.30
2019,08,05,14,29,28.40
2019,08,05,14,30,28.30
2019,08,05,14,31,28.30
2019,08,05,14,32,28.20
2019,08,05,14,33,28.20
2019,08,05,14,34,28.20
2019,08,05,14,35,28.30
2019,08,05,14,36,28.30
2019,08,05,14,37,28.40
2019,08,05,14,38,28.40
2019,08,05,14,39,28.50
2019,08,05,14,40,28.60
2019,08,05,14,41,28.50
2019,08,05,14,42,28.50
2019,08,05,14,43,28.50
2019,08,05,14,44,28.50
2019,08,05,14,45,28.50
2019,08,05,14,46,28.50
2019,08,05,14,47,28.60
2019,08,05,14,48,28.60
2019,08,05,14,49,28.60
2019,08,05,14,50,28.60
2019,08,05,14,51,28.60
2019,08,05,14,52,28.60
2019,08,05,14,53,28.60
2019,08,05,14,54,28.60
2019,08,05,14,55,28.60
2019,08,05,14,56,28.60
2019,08,05,14,57,28.60
2019,08,05,14,58,28.60
2019,08,05,14,59,28.60
2019,08,05,15,00,28.60
2019,08,05,15,01,28.70
2019,08,05,15,02,28.70
2019,08,05,15,03,28.80
2019,08,05,15,04,28.80
2019,08,05,15,05,28.80
2019,08,05,15,06,28.80
2019,08,05,15,07,28.90
2019,08,05,15,08,28.90
2019,08,05,15,09,28.90
2019,08,05,15,10,28.80
2019,08,05,15,11,28.80
2019,08,05,15,12,28.80
2019,08,05,15,13,28.80
2019,08,05,15,14,28.80
2019,08,05,15,15,28.90
2019,08,05,15,16,28.90
2019,08,05,15,17,28.90
2019,08,05,15,18,28.90
2019,08,05,15,19,28.90
2019,08,05,15,20,28.80
2019,08,05,15,21,28.80
2019,08,05,15,22,28.80
2019,08,05,15,23,28.90
2019,08,05,15,24,28.90
2019,08,05,15,25,28.90
2019,08,05,15,26,28.90
2019,08,05,15,27,28.90
2019,08,05,15,28,28.90
2019,08,05,15,29,28.90
2019,08,05,15,30,28.90
2019,08,05,15,31,29.00
2019,08,05,15,32,28.90
2019,08,05,15,33,28.90
2019,08,05,15,34,28.90
2019,08,05,15,35,29.00
2019,08,05,15,36,29.00
2019,08,05,15,37,29.10
2019,08,05,15,38,29.10
2019,08,05,15,39,29.20
2019,08,05,15,40,29.20
2019,08,05,15,41,29.20
2019,08,05,15,42,29.30
2019,08,05,15,43,29.30
2019,08,05,15,44,29.30
2019,08,05,15,45,29.30
2019,08,05,15,46,29.30
2019,08,05,15,47,29.20
2019,08,05,15,48,29.20
2019,08,05,15,49,29.20
2019,08,05,15,50,29.20
2019,08,05,15,51,29.10
2019,08,05,15,52,29.10
2019,08,05,15,53,29.00
2019,08,05,15,54,28.90
2019,08,05,15,55,28.90
2019,08,05,15,56,28.80
2019,08,05,15,57,28.80
2019,08,05,15,58,28.80
2019,08,05,15,59,28.80
2019,08,05,16,00,28.80
2019,08,05,16,01,28.80
2019,08,05,16,02,28.80
2019,08,05,16,03,28.80
2019,08,05,16,04,28.80
2019,08,05,16,05,28.80
2019,08,05,16,06,28.80
2019,08,05,16,07,28.90
2019,08,05,16,08,28.90
2019,08,05,16,09,29.00
2019,08,05,16,10,29.00
2019,08,05,16,11,29.10
2019,08,05,16,12,29.10
2019,08,05,16,13,29.10
2019,08,05,16,14,29.20
2019,08,05,16,15,29.20
2019,08,05,16,16,29.30
2019,08,05,16,17,29.30
2019,08,05,16,18,29.30
2019,08,05,16,19,29.30
2019,08,05,16,20,29.20
2019,08,05,16,21,29.20
2019,08,05,16,22,29.20
2019,08,05,16,23,29.20
2019,08,05,16,24,29.20
2019,08,05,16,25,29.20
2019,08,05,16,26,29.20
2019,08,05,16,27,29.30
2019,08,05,16,28,29.30
2019,08,05,16,29,29.30
2019,08,05,16,30,29.20
2019,08,05,16,31,29.30
2019,08,05,16,32,29.30
2019,08,05,16,33,29.30
2019,08,05,16,34,29.40
2019,08,05,16,35,29.40
2019,08,05,16,36,29.50
2019,08,05,16,37,29.50
2019,08,05,16,38,29.50
2019,08,05,16,39,29.60
2019,08,05,16,40,29.50
2019,08,05,16,41,29.50
2019,08,05,16,42,29.60
2019,08,05,16,43,29.60
2019,08,05,16,44,29.60
2019,08,05,16,45,29.60
2019,08,05,16,46,29.60
2019,08,05,16,47,29.60
2019,08,05,16,48,29.60
2019,08,05,16,49,29.50
2019,08,05,16,50,29.50
2019,08,05,16,51,29.60
2019,08,05,16,52,29.50
2019,08,05,16,53,29.40
2019,08,05,16,54,29.50
2019,08,05,16,55,29.40
2019,08,05,16,56,29.40
2019,08,05,16,57,29.30
2019,08,05,16,58,29.30
2019,08,05,16,59,29.30
2019,08,05,17,00,29.40
2019,08,05,17,01,29.40
2019,08,05,17,02,29.40
2019,08,05,17,03,29.40
2019,08,05,17,04,29.40
2019,08,05,17,05,29.40
2019,08,05,17,06,29.40
2019,08,05,17,07,29.40
2019,08,05,17,08,29.50
2019,08,05,17,09,29.50
2019,08,05,17,10,29.50
2019,08,05,17,11,29.60
2019,08,05,17,12,29.50
2019,08,05,17,13,29.40
2019,08,05,17,14,29.30
2019,08,05,17,15,29.30
2019,08,05,17,16,29.10
2019,08,05,17,17,29.10
2019,08,05,17,18,29.10
2019,08,05,17,19,29.10